TERRESTAR-1

Last updated on Sat Dec 13 2025 00:02:47 GMT+0000 (Coordinated Universal Time)

1 35496U 09035A 25346.25435231 -.00000049 00000+0 00000+0 0 9991 2 35496 5.0147 48.8231 0002670 208.2501 164.7009 1.00273480 60261
UTC large
Height (km)
Speed (km/s)
/
Latitude / Longitude
Inclination (degrees)
Orbital Period (minutes)
Azimuth
Elevation
Range (km)
Doppler Factor

Next 0 passes for location: London (51.5072 / 0.1276)

Sorry there are no passes over London.